Location: Oriwa
(40.7500°S, 175.3333°E)
Time: 11:49:41
(UTC+00:00)

Cosmos 2098 Rocket - Pass Details

Date: 03 February 2023
Orbit: 365 x 1109 km, 82.9° (Epoch: 30 March)

Event Time Altitude Azimuth Distance (km) Brightness Sun altitude
Rises 13:20:52 0° 192° (SSW) 3,913 8.0 -31.7°
Reaches altitude 10° 13:23:43 10° 196° (SSW) 2,888 7.1 -31.5°
Enters shadow 13:29:14 48° 240° (WSW) 1,243 4.5 -31.3°
